Regional Weather Roundup
Issued by NWS

Home | Current Version | Previous Version | Graphics & Text | Print | Product List | Glossary On
Versions: 1 2 3 4 5 6 7 8 9 10 11 12 13 14 15 16 17 18 19 20 21 22 23 24 25 26 27 28 29 30 31 32 33 34 35 36 37 38 39 40 41 42 43 44 45 46 47 48 49 50
000
ASUS43 KLMK 240310
RWRKY
KENTUCKY REGIONAL WEATHER ROUNDUP
NATIONAL WEATHER SERVICE LOUISVILLE KY
1100 PM EDT MON APR 23 2018

NOTE "FAIR" INDICATES FEW OR NO CLOUDS BELOW 12,000 FEET
WITH NO SIGNIFICANT WEATHER AND/OR OBSTRUCTIONS TO VISIBILITY.

KYZ001>023-026-027-061>063-070>075-240400-
WESTERN AND SOUTH CENTRAL KENTUCKY

CITY           SKY/WX    TMP DP  RH WIND       PRES   REMARKS
PADUCAH        FOG       56  54  93 CALM      29.92S VSB 1/2
HENDERSON      MOCLDY    57  55  93 CALM      29.96R
OWENSBORO      CLOUDY    57  54  89 CALM      29.96R
HOPKINSVILLE   FAIR      55  55 100 NE5       29.92S
BOWLING GREEN  FAIR      56  55  97 E3        29.94S
GLASGOW        LGT RAIN  55  53  94 E5        29.95R
$$

KYZ024-025-028>034-038-045-046-053-240400-
NORTH CENTRAL KENTUCKY

CITY           SKY/WX    TMP DP  RH WIND       PRES   REMARKS
LOUISVILLE/SDF CLOUDY    57  51  80 E7        29.99S
LOUISVILLE/LOU CLOUDY    57  53  86 NE9       29.99F
FORT KNOX      MOCLDY    55  54  95 NE9       29.98S
$$

KYZ035>037-039>044-047>052-055>060-089>105-240400-
NORTHEAST KENTUCKY

CITY           SKY/WX    TMP DP  RH WIND       PRES   REMARKS
LEXINGTON      CLOUDY    55  51  86 E10       29.99F
COVINGTON      CLOUDY    53  49  86 E10       30.04F
FRANKFORT      CLOUDY    55  50  83 NE9       29.99F
$$

KYZ054-064>069-076>088-106>120-240400-
SOUTHEAST KENTUCKY

CITY           SKY/WX    TMP DP  RH WIND       PRES   REMARKS
JACKSON        FAIR      57  45  64 VRB5      30.02F
LONDON         LGT RAIN  56  51  84 E8        29.96F
SOMERSET       LGT RAIN  54  54 100 CALM      29.97R
MIDDLESBORO    CLOUDY    56  51  83 N3        29.99S
MONTICELLO     HVY RAIN  54  54 100 N13       29.98S
$$





USA.gov is the U.S. government's official web portal to all federal, state and local government web resources and services.